sat.trackr.live / text

‹ back to catalog

STARLINK-34113

NORAD 64010 · 2025-101S

PAYLOAD ACTIVE UNKNOWN

§ Identity

Operator
Country
US
Launch date
2025-05-14
Launch site
AFETR
Launch vehicle
Mass (kg)
RCS (m²)

Purposes: comms

External: N2YO · Heavens-Above · Gunter

§ Orbital elements

Epoch: 2026-09-20T05:22:58.700928Z

Period
94.27 min
Inclination
43.0017°
Eccentricity
0.0001206
Mean motion
15.27585229 rev/d
Perigee alt
482.2 km
Apogee alt
483.9 km
Semi-major
6,861.2 km
B*
3.8471e-4
RAAN
339.6024°
Arg perigee
260.5673°
Mean anomaly
99.5042°
Rev number
7,680

§ Raw data

STARLINK-341131 64010U 25101S   26263.22429052  .00010341  00000+0  38471-3 0  99992 64010  43.0017 339.6024 0001206 260.5673  99.5042 15.27585229 76809

JSON: /api/v1/satellites/64010 · /tle

For live sub-satellite position, see the globe view (requires WebGL).

§ Visibility from observer

Set your observer location to see the next 7 days of passes ≥ 10°. The values pass through the URL so the page stays shareable.

No JS? Fill the form by hand. The geolocation button needs JavaScript.